Location: Kellogg
(38.0159°N, 90.0546°W)
Time: 22:41:01
(UTC+00:00)

SR - Pass Details

Date: 17 September 2024
Orbit: 578 x 855 km, 66.7° (Epoch: 09 October)

Event Time Altitude Azimuth Distance (km) Brightness Sun altitude
Rises 19:56:09 0° 262° (W) 2,797 ? 44.3°
Reaches altitude 10° 20:00:17 10° 302° (WNW) 1,891 ? 43.7°
Maximum altitude 20:01:14 11° 315° (NW) 1,852 ? 43.6°
Drops below altitude 10° 20:02:12 10° 328° (NNW) 1,896 ? 43.5°
Sets 20:06:23 0° 8° (N) 2,824 ? 42.8°
